Regional Weather Roundup
Issued by NWS

Home | Current Version | Previous Version | Graphics & Text | Print | Product List | Glossary Off
Versions: 1 2 3 4 5 6 7 8 9 10 11 12 13 14 15 16 17 18 19 20 21 22 23 24 25 26 27 28 29 30 31 32 33 34 35 36 37 38 39 40 41 42 43 44 45 46 47 48 49 50

000
ASUS43 KTOP 250008
RWRKS

WEATHER ROUNDUP FOR KANSAS
NATIONAL WEATHER SERVICE GOODLAND KS
600 PM CST MON NOV 24 2014

NOTE:  "FAIR" INDICATES FEW OR NO CLOUDS BELOW 12,000 FEET WITH NO
SIGNIFICANT WEATHER AND/OR OBSTRUCTIONS TO VISIBILITY.

KSZ001>006-013>018-027>032-041>047-250100-
NORTHWEST KANSAS

CITY           SKY/WX    TMP DP  RH WIND       PRES   REMARKS
GOODLAND       MOCLDY    36  28  73 N15       30.07R WCI  27
6HR MIN TEMP:  36; 6HR MAX TEMP:  48; 6HR PCP: TRACE;

HAYS           FAIR      37  14  38 N9        30.01R
HILL CITY      MOCLDY    33  14  45 N8        30.02R
6HR MIN TEMP:  33; 6HR MAX TEMP:  51;

RUSSELL        CLEAR     37  17  44 N8        30.00R
6HR MIN TEMP:  36; 6HR MAX TEMP:  50;

$$

KSZ061>065-074>080-084>089-250100-
SOUTHWEST KANSAS

CITY           SKY/WX    TMP DP  RH WIND       PRES   REMARKS
DODGE CITY     PTCLDY    38  16  40 NW9       30.03R
6HR MIN TEMP:  38; 6HR MAX TEMP:  53;

ELKHART          N/A     41  11  29 NW7         N/A
GARDEN CITY    CLOUDY    39  18  42 N7        30.03R
6HR MIN TEMP:  39; 6HR MAX TEMP:  51;

GREAT BEND     CLEAR     37  12  35 N6        30.03R
LIBERAL        PTCLDY    39   9  28 NW10      30.06R WCI  32
PRATT          CLEAR     36  18  48 N7        30.03R
$$

KSZ066>073-081>083-090>101-250100-
SOUTHEAST KANSAS

CITY           SKY/WX    TMP DP  RH WIND       PRES   REMARKS
CHANUTE        CLEAR     42  20  41 NW12      29.99R
6HR MIN TEMP:  42; 6HR MAX TEMP:  50;

COFFEYVILLE    CLEAR     45  23  42 NW10      30.00R
6HR MIN TEMP:  45; 6HR MAX TEMP:  53;

HUTCHINSON     CLEAR     41  16  36 NW8       30.01R
6HR MIN TEMP:  41; 6HR MAX TEMP:  52;

MEDICINE LODGE   N/A     44  18  35 N6        30.02R
NEWTON         CLEAR     37  18  44 N5        30.02R
PARSONS        CLEAR     41  23  48 NW8       30.01R
6HR MIN TEMP:  39; 6HR MAX TEMP:  52;

WICHITA INTL   PTCLDY    41  16  36 NW9       30.01R
6HR MIN TEMP:  41; 6HR MAX TEMP:  53;

WICHITA JABRA  CLEAR     39  21  48 NW8       30.01R
6HR MIN TEMP:  39; 6HR MAX TEMP:  50;

WICHITA MCCONL CLEAR     44  16  32 N7        30.02R
WINFIELD       CLEAR     38  21  50 NW8       30.03R
6HR MIN TEMP:  38; 6HR MAX TEMP:  53;

$$

KSZ007>012-019>026-033>040-048>060-102>105-250100-
NORTHEAST KANSAS

CITY           SKY/WX    TMP DP  RH WIND       PRES   REMARKS
CONCORDIA      CLEAR     39  18  42 NW14      30.00R WCI  31
6HR MIN TEMP:  39; 6HR MAX TEMP:  44;

EMPORIA        CLEAR     38  17  42 NW7       29.99R
6HR MIN TEMP:  38; 6HR MAX TEMP:  46;

LAWRENCE       CLEAR     32  22  66 NW8       29.97R
6HR MIN TEMP:  32; 6HR MAX TEMP:  43;

MANHATTAN      CLEAR     39  12  33 VRB3      29.99R
6HR MIN TEMP:  39; 6HR MAX TEMP:  46;

MARYSVILLE     CLEAR     32  14  47 NW8       29.97R
OLATHE IND     FAIR      36  22  56 NW9       29.96R
6HR MIN TEMP:  35; 6HR MAX TEMP:  40;

OLATHE EXE     FAIR      37  21  52 NW9       29.95R
6HR MIN TEMP:  36; 6HR MAX TEMP:  40;

SALINA         CLEAR     38  19  46 NW9       30.01R
6HR MIN TEMP:  38; 6HR MAX TEMP:  49;

TOPEKA BILLARD CLEAR     38  18  44 NW8       29.98R
6HR MIN TEMP:  37; 6HR MAX TEMP:  45;

TOPEKA FORBES  CLEAR     36  19  50 NW9       29.97R
6HR MIN TEMP:  35; 6HR MAX TEMP:  45;

$$



USA.gov is the U.S. government's official web portal to all federal, state and local government web resources and services.